Location: Lalanga
(4.5882°N, 32.9072°E)
Time: 18:42:15
(UTC+00:00)

CZ-2C R/B - Pass Details

Date: 24 January 2020
Orbit: 785 x 870 km, 98.3° (Epoch: 26 February)

Event Time Altitude Azimuth Distance (km) Brightness Sun altitude
Exits shadow 18:02:12 50° 179° (S) 1,083 3.2 -30.2°
Drops below altitude 10° 18:06:15 10° 189° (S) 2,486 5.4 -31.2°
Sets 18:08:36 0° 190° (S) 3,413 6.2 -31.7°
